contact:dominique.lefevre@mio.osupytheas.fr, maurice.libes@osupytheas.fr, didier.mallarino@osupytheas.fr
Project:EMSO http://www.emso-fr.org/EMSO-France
Depth: 2436.0 m
Title:EMSO Ligure Ouest : Data MII capteur MICROCAT
DateTime_Computer,Latitude,Longitude,Temperature,Conductivity,Pressure,DateTime_Instrument
DateTime_Computer,Latitude,Longitude,degC,S m-1,dbar,DateTime_Instrument
2020-07-06T00:03:03Z,42.805,6.029,13.2975,4.60015,2470.03,2020-7-06T02:03:49Z
2020-07-06T00:06:06Z,42.805,6.029,13.2969,4.60016,2470.053,2020-7-06T02:06:52Z
2020-07-06T00:09:09Z,42.805,6.029,13.2971,4.60007,2469.993,2020-7-06T02:09:55Z
2020-07-06T00:12:12Z,42.805,6.029,13.2970,4.60026,2470.053,2020-7-06T02:12:58Z
2020-07-06T00:15:16Z,42.805,6.029,13.2974,4.60000,2470.03,2020-7-06T02:16:02Z
2020-07-06T00:18:19Z,42.805,6.029,13.2970,4.59996,2470.017,2020-7-06T02:19:05Z
2020-07-06T00:21:22Z,42.805,6.029,13.2971,4.59999,2470.04,2020-7-06T02:22:08Z
2020-07-06T00:24:25Z,42.805,6.029,13.2973,4.59987,2469.993,2020-7-06T02:25:11Z
2020-07-06T00:27:28Z,42.805,6.029,13.2970,4.59988,2470.026,2020-7-06T02:28:14Z
2020-07-06T00:30:32Z,42.805,6.029,13.2967,4.59993,2470.007,2020-7-06T02:31:18Z
2020-07-06T00:33:35Z,42.805,6.029,13.2972,4.59993,2470.04,2020-7-06T02:34:21Z
2020-07-06T00:36:38Z,42.805,6.029,13.2970,4.59989,2469.993,2020-7-06T02:37:24Z
2020-07-06T00:39:42Z,42.805,6.029,13.2971,4.59986,2470.017,2020-7-06T02:40:28Z
2020-07-06T00:42:45Z,42.805,6.029,13.2971,4.59981,2470.007,2020-7-06T02:43:31Z
2020-07-06T00:45:48Z,42.805,6.029,13.2968,4.59990,2470.04,2020-7-06T02:46:34Z
2020-07-06T00:48:51Z,42.805,6.029,13.2971,4.59982,2470.03,2020-7-06T02:49:37Z
2020-07-06T00:51:55Z,42.805,6.029,13.2971,4.59992,2470.03,2020-7-06T02:52:41Z
2020-07-06T00:54:58Z,42.805,6.029,13.2972,4.59999,2470.017,2020-7-06T02:55:44Z
2020-07-06T00:58:01Z,42.805,6.029,13.2974,4.59994,2470.003,2020-7-06T02:58:47Z
2020-07-06T01:01:05Z,42.805,6.029,13.2974,4.60006,2470.03,2020-7-06T03:01:51Z
2020-07-06T01:04:08Z,42.805,6.029,13.2974,4.60001,2470.04,2020-7-06T03:04:54Z
2020-07-06T01:07:11Z,42.805,6.029,13.2967,4.59990,2469.993,2020-7-06T03:07:57Z
2020-07-06T01:10:14Z,42.805,6.029,13.2972,4.59991,2469.993,2020-7-06T03:11:00Z
2020-07-06T01:13:18Z,42.805,6.029,13.2969,4.59991,2469.984,2020-7-06T03:14:04Z
2020-07-06T01:16:21Z,42.805,6.029,13.2971,4.59984,2470.007,2020-7-06T03:17:07Z
2020-07-06T01:19:24Z,42.805,6.029,13.2968,4.59996,2469.993,2020-7-06T03:20:10Z
2020-07-06T01:22:27Z,42.805,6.029,13.2969,4.59988,2469.984,2020-7-06T03:23:13Z
2020-07-06T01:25:31Z,42.805,6.029,13.2970,4.59986,2470.017,2020-7-06T03:26:17Z
2020-07-06T01:28:34Z,42.805,6.029,13.2973,4.59983,2469.984,2020-7-06T03:29:20Z
2020-07-06T01:31:37Z,42.805,6.029,13.2972,4.59985,2469.984,2020-7-06T03:32:23Z
2020-07-06T01:34:40Z,42.805,6.029,13.2973,4.59990,2469.984,2020-7-06T03:35:27Z
2020-07-06T01:37:44Z,42.805,6.029,13.2971,4.59984,2469.993,2020-7-06T03:38:30Z
2020-07-06T01:40:47Z,42.805,6.029,13.2969,4.59981,2470.007,2020-7-06T03:41:33Z
2020-07-06T01:43:50Z,42.805,6.029,13.2975,4.59985,2469.947,2020-7-06T03:44:36Z
2020-07-06T01:46:53Z,42.805,6.029,13.2973,4.59979,2469.993,2020-7-06T03:47:39Z
2020-07-06T01:49:57Z,42.805,6.029,13.2970,4.59978,2469.97,2020-7-06T03:50:43Z
2020-07-06T01:53:00Z,42.805,6.029,13.2973,4.59984,2469.97,2020-7-06T03:53:46Z
2020-07-06T01:56:03Z,42.805,6.029,13.2971,4.59983,2469.97,2020-7-06T03:56:49Z
2020-07-06T01:59:06Z,42.805,6.029,13.2971,4.59978,2469.937,2020-7-06T03:59:52Z
2020-07-06T02:02:10Z,42.805,6.029,13.2971,4.59979,2469.984,2020-7-06T04:02:56Z
2020-07-06T02:05:13Z,42.805,6.029,13.2974,4.59995,2469.984,2020-7-06T04:05:59Z
2020-07-06T02:08:16Z,42.805,6.029,13.2968,4.59981,2469.947,2020-7-06T04:09:02Z
2020-07-06T02:11:19Z,42.805,6.029,13.2970,4.59994,2469.984,2020-7-06T04:12:05Z
2020-07-06T02:14:23Z,42.805,6.029,13.2973,4.59992,2469.97,2020-7-06T04:15:09Z
2020-07-06T02:17:26Z,42.805,6.029,13.2969,4.59980,2469.984,2020-7-06T04:18:12Z
2020-07-06T02:20:29Z,42.805,6.029,13.2969,4.59980,2469.947,2020-7-06T04:21:15Z
2020-07-06T02:23:32Z,42.805,6.029,13.2974,4.59982,2469.984,2020-7-06T04:24:18Z
2020-07-06T02:26:36Z,42.805,6.029,13.2973,4.59978,2469.984,2020-7-06T04:27:22Z
2020-07-06T02:29:39Z,42.805,6.029,13.2972,4.59987,2469.984,2020-7-06T04:30:25Z
2020-07-06T02:32:42Z,42.805,6.029,13.2972,4.59982,2469.947,2020-7-06T04:33:28Z
2020-07-06T02:35:45Z,42.805,6.029,13.2969,4.59986,2469.947,2020-7-06T04:36:31Z
2020-07-06T02:38:48Z,42.805,6.029,13.2969,4.59979,2469.96,2020-7-06T04:39:34Z
2020-07-06T02:41:52Z,42.805,6.029,13.2972,4.59981,2469.96,2020-7-06T04:42:38Z
2020-07-06T02:44:55Z,42.805,6.029,13.2971,4.59981,2469.97,2020-7-06T04:45:41Z
2020-07-06T02:47:58Z,42.805,6.029,13.2974,4.59982,2469.947,2020-7-06T04:48:44Z
2020-07-06T02:51:01Z,42.805,6.029,13.2971,4.59976,2469.947,2020-7-06T04:51:47Z
2020-07-06T02:54:05Z,42.805,6.029,13.2969,4.59981,2469.97,2020-7-06T04:54:51Z
2020-07-06T02:57:08Z,42.805,6.029,13.2973,4.59983,2469.96,2020-7-06T04:57:54Z
2020-07-06T03:00:11Z,42.805,6.029,13.2971,4.59983,2469.984,2020-7-06T05:00:57Z
2020-07-06T03:03:15Z,42.805,6.029,13.2974,4.59979,2469.984,2020-7-06T05:04:01Z
2020-07-06T03:06:18Z,42.805,6.029,13.2971,4.59981,2469.97,2020-7-06T05:07:04Z
2020-07-06T03:09:21Z,42.805,6.029,13.2971,4.59979,2469.984,2020-7-06T05:10:07Z
2020-07-06T03:12:24Z,42.805,6.029,13.2969,4.59981,2469.947,2020-7-06T05:13:10Z
2020-07-06T03:15:28Z,42.805,6.029,13.2972,4.59977,2469.923,2020-7-06T05:16:14Z
2020-07-06T03:18:31Z,42.805,6.029,13.2972,4.59979,2469.97,2020-7-06T05:19:17Z
2020-07-06T03:21:34Z,42.805,6.029,13.2973,4.59980,2469.96,2020-7-06T05:22:20Z
2020-07-06T03:24:37Z,42.805,6.029,13.2971,4.59983,2469.96,2020-7-06T05:25:23Z
2020-07-06T03:27:41Z,42.805,6.029,13.2969,4.59980,2469.984,2020-7-06T05:28:27Z
2020-07-06T03:30:44Z,42.805,6.029,13.2970,4.59983,2469.947,2020-7-06T05:31:30Z
2020-07-06T03:33:47Z,42.805,6.029,13.2968,4.59976,2469.96,2020-7-06T05:34:33Z
2020-07-06T03:36:50Z,42.805,6.029,13.2971,4.59976,2469.97,2020-7-06T05:37:36Z
2020-07-06T03:39:54Z,42.805,6.029,13.2971,4.59976,2469.97,2020-7-06T05:40:40Z
2020-07-06T03:42:57Z,42.805,6.029,13.2971,4.59977,2469.984,2020-7-06T05:43:43Z
2020-07-06T03:46:00Z,42.805,6.029,13.2974,4.59978,2469.984,2020-7-06T05:46:46Z
2020-07-06T03:49:03Z,42.805,6.029,13.2973,4.59976,2469.993,2020-7-06T05:49:49Z
2020-07-06T03:52:07Z,42.805,6.029,13.2974,4.59973,2469.984,2020-7-06T05:52:53Z
2020-07-06T03:55:10Z,42.805,6.029,13.2968,4.59976,2469.97,2020-7-06T05:55:56Z
2020-07-06T03:58:13Z,42.805,6.029,13.2968,4.59976,2469.993,2020-7-06T05:58:59Z
2020-07-06T04:01:17Z,42.805,6.029,13.2971,4.59979,2470.007,2020-7-06T06:02:03Z
2020-07-06T04:04:20Z,42.805,6.029,13.2969,4.59978,2469.97,2020-7-06T06:05:06Z
2020-07-06T04:07:23Z,42.805,6.029,13.2970,4.59975,2469.993,2020-7-06T06:08:09Z
2020-07-06T04:10:26Z,42.805,6.029,13.2971,4.59978,2469.984,2020-7-06T06:11:12Z
2020-07-06T04:13:29Z,42.805,6.029,13.2973,4.59976,2469.97,2020-7-06T06:14:15Z
2020-07-06T04:16:33Z,42.805,6.029,13.2970,4.59978,2469.993,2020-7-06T06:17:19Z
2020-07-06T04:19:36Z,42.805,6.029,13.2971,4.59976,2469.993,2020-7-06T06:20:22Z
2020-07-06T04:22:39Z,42.805,6.029,13.2968,4.59976,2469.947,2020-7-06T06:23:25Z
2020-07-06T04:25:43Z,42.805,6.029,13.2974,4.59976,2469.993,2020-7-06T06:26:29Z
2020-07-06T04:28:46Z,42.805,6.029,13.2967,4.59973,2469.984,2020-7-06T06:29:32Z
2020-07-06T04:31:49Z,42.805,6.029,13.2971,4.59975,2469.993,2020-7-06T06:32:35Z
2020-07-06T04:34:52Z,42.805,6.029,13.2971,4.59975,2469.993,2020-7-06T06:35:38Z
2020-07-06T04:37:55Z,42.805,6.029,13.2968,4.59973,2470.003,2020-7-06T06:38:41Z
2020-07-06T04:40:59Z,42.805,6.029,13.2968,4.59974,2469.97,2020-7-06T06:41:45Z
2020-07-06T04:44:02Z,42.805,6.029,13.2970,4.59975,2469.97,2020-7-06T06:44:48Z
2020-07-06T04:47:05Z,42.805,6.029,13.2966,4.59974,2469.947,2020-7-06T06:47:51Z
2020-07-06T04:50:09Z,42.805,6.029,13.2975,4.59973,2470.017,2020-7-06T06:50:55Z
2020-07-06T04:53:12Z,42.805,6.029,13.2967,4.59975,2469.993,2020-7-06T06:53:58Z
2020-07-06T04:56:15Z,42.805,6.029,13.2965,4.59973,2469.97,2020-7-06T06:57:01Z
2020-07-06T04:59:19Z,42.805,6.029,13.2969,4.59974,2470.017,2020-7-06T07:00:05Z
2020-07-06T05:02:22Z,42.805,6.029,13.2971,4.59975,2470.007,2020-7-06T07:03:08Z
2020-07-06T05:05:25Z,42.805,6.029,13.2969,4.59974,2470.017,2020-7-06T07:06:11Z
2020-07-06T05:08:28Z,42.805,6.029,13.2970,4.59974,2470.007,2020-7-06T07:09:14Z
2020-07-06T05:11:31Z,42.805,6.029,13.2973,4.59975,2470.017,2020-7-06T07:12:17Z
2020-07-06T05:14:35Z,42.805,6.029,13.2971,4.59974,2469.993,2020-7-06T07:15:21Z
2020-07-06T05:17:38Z,42.805,6.029,13.2971,4.59973,2469.993,2020-7-06T07:18:24Z
2020-07-06T05:20:41Z,42.805,6.029,13.2968,4.59974,2470.017,2020-7-06T07:21:27Z
2020-07-06T05:23:44Z,42.805,6.029,13.2971,4.59974,2469.993,2020-7-06T07:24:30Z
2020-07-06T05:26:48Z,42.805,6.029,13.2970,4.59975,2470.04,2020-7-06T07:27:34Z
2020-07-06T05:29:51Z,42.805,6.029,13.2968,4.59976,2469.993,2020-7-06T07:30:37Z
2020-07-06T05:32:54Z,42.805,6.029,13.2973,4.59976,2469.984,2020-7-06T07:33:40Z
2020-07-06T05:35:58Z,42.805,6.029,13.2972,4.59976,2470.04,2020-7-06T07:36:44Z
2020-07-06T05:39:01Z,42.805,6.029,13.2971,4.59976,2470.04,2020-7-06T07:39:47Z
2020-07-06T05:42:04Z,42.805,6.029,13.2971,4.59974,2470.017,2020-7-06T07:42:50Z
2020-07-06T05:45:07Z,42.805,6.029,13.2971,4.59978,2470.04,2020-7-06T07:45:53Z
2020-07-06T05:48:11Z,42.805,6.029,13.2970,4.59976,2470.03,2020-7-06T07:48:57Z
2020-07-06T05:51:14Z,42.805,6.029,13.2969,4.59976,2470.04,2020-7-06T07:52:00Z
2020-07-06T05:54:17Z,42.805,6.029,13.2971,4.59975,2470.053,2020-7-06T07:55:03Z
2020-07-06T05:57:20Z,42.805,6.029,13.2967,4.59976,2470.077,2020-7-06T07:58:06Z
2020-07-06T06:00:24Z,42.805,6.029,13.2971,4.59973,2470.053,2020-7-06T08:01:10Z
2020-07-06T06:03:27Z,42.805,6.029,13.2970,4.59976,2470.053,2020-7-06T08:04:13Z
2020-07-06T06:06:30Z,42.805,6.029,13.2968,4.59978,2470.053,2020-7-06T08:07:16Z
2020-07-06T06:09:33Z,42.805,6.029,13.2968,4.59974,2470.053,2020-7-06T08:10:19Z
2020-07-06T06:12:37Z,42.805,6.029,13.2972,4.59976,2470.063,2020-7-06T08:13:23Z
2020-07-06T06:15:40Z,42.805,6.029,13.2970,4.59976,2470.077,2020-7-06T08:16:26Z
2020-07-06T06:18:43Z,42.805,6.029,13.2971,4.59974,2470.053,2020-7-06T08:19:29Z
2020-07-06T06:21:46Z,42.805,6.029,13.2970,4.59974,2470.063,2020-7-06T08:22:32Z
2020-07-06T06:24:50Z,42.805,6.029,13.2971,4.59974,2470.063,2020-7-06T08:25:36Z
2020-07-06T06:27:53Z,42.805,6.029,13.2971,4.59973,2470.053,2020-7-06T08:28:39Z
2020-07-06T06:30:56Z,42.805,6.029,13.2970,4.59976,2470.04,2020-7-06T08:31:42Z
2020-07-06T06:33:59Z,42.805,6.029,13.2969,4.59976,2470.049,2020-7-06T08:34:46Z
2020-07-06T06:37:03Z,42.805,6.029,13.2970,4.59976,2470.1,2020-7-06T08:37:49Z
2020-07-06T06:40:06Z,42.805,6.029,13.2971,4.59974,2470.1,2020-7-06T08:40:52Z
2020-07-06T06:43:09Z,42.805,6.029,13.2968,4.59975,2470.04,2020-7-06T08:43:55Z
2020-07-06T06:46:13Z,42.805,6.029,13.2971,4.59974,2470.063,2020-7-06T08:46:59Z
2020-07-06T06:49:16Z,42.805,6.029,13.2972,4.59973,2470.087,2020-7-06T08:50:02Z
2020-07-06T06:52:19Z,42.805,6.029,13.2971,4.59980,2470.063,2020-7-06T08:53:05Z
2020-07-06T06:55:22Z,42.805,6.029,13.2968,4.59974,2470.063,2020-7-06T08:56:08Z
2020-07-06T06:58:26Z,42.805,6.029,13.2973,4.59973,2470.087,2020-7-06T08:59:12Z
2020-07-06T07:01:29Z,42.805,6.029,13.2970,4.59978,2470.087,2020-7-06T09:02:15Z
2020-07-06T07:04:32Z,42.805,6.029,13.2972,4.59976,2470.087,2020-7-06T09:05:18Z
2020-07-06T07:07:35Z,42.805,6.029,13.2972,4.59973,2470.1,2020-7-06T09:08:21Z
2020-07-06T07:10:39Z,42.805,6.029,13.2972,4.59973,2470.087,2020-7-06T09:11:25Z
2020-07-06T07:13:42Z,42.805,6.029,13.2973,4.59976,2470.04,2020-7-06T09:14:28Z
2020-07-06T07:16:45Z,42.805,6.029,13.2969,4.59973,2470.1,2020-7-06T09:17:31Z
2020-07-06T07:19:49Z,42.805,6.029,13.2970,4.59976,2470.1,2020-7-06T09:20:35Z
2020-07-06T07:22:52Z,42.805,6.029,13.2969,4.59975,2470.087,2020-7-06T09:23:38Z
2020-07-06T07:25:55Z,42.805,6.029,13.2968,4.59976,2470.087,2020-7-06T09:26:41Z
2020-07-06T07:28:59Z,42.805,6.029,13.2969,4.59974,2470.077,2020-7-06T09:29:45Z
2020-07-06T07:32:02Z,42.805,6.029,13.2974,4.59973,2470.077,2020-7-06T09:32:48Z
2020-07-06T07:35:05Z,42.805,6.029,13.2968,4.59975,2470.063,2020-7-06T09:35:51Z
2020-07-06T07:38:08Z,42.805,6.029,13.2969,4.59974,2470.087,2020-7-06T09:38:54Z
2020-07-06T07:41:12Z,42.805,6.029,13.2974,4.59974,2470.087,2020-7-06T09:41:58Z
2020-07-06T07:44:15Z,42.805,6.029,13.2970,4.59973,2470.1,2020-7-06T09:45:01Z
2020-07-06T07:47:18Z,42.805,6.029,13.2971,4.59976,2470.077,2020-7-06T09:48:04Z
2020-07-06T07:50:21Z,42.805,6.029,13.2974,4.59973,2470.053,2020-7-06T09:51:07Z
2020-07-06T07:53:25Z,42.805,6.029,13.2968,4.59975,2470.087,2020-7-06T09:54:11Z
2020-07-06T07:56:28Z,42.805,6.029,13.2969,4.59975,2470.077,2020-7-06T09:57:14Z
2020-07-06T07:59:31Z,42.805,6.029,13.2970,4.59973,2470.124,2020-7-06T10:00:17Z
2020-07-06T08:02:34Z,42.805,6.029,13.2968,4.59973,2470.077,2020-7-06T10:03:21Z
2020-07-06T08:05:38Z,42.805,6.029,13.2973,4.59975,2470.053,2020-7-06T10:06:24Z
2020-07-06T08:08:41Z,42.805,6.029,13.2972,4.59976,2470.077,2020-7-06T10:09:27Z
2020-07-06T08:11:44Z,42.805,6.029,13.2973,4.59976,2470.04,2020-7-06T10:12:30Z
2020-07-06T08:14:47Z,42.805,6.029,13.2970,4.59973,2470.077,2020-7-06T10:15:33Z
2020-07-06T08:17:51Z,42.805,6.029,13.2974,4.59976,2470.063,2020-7-06T10:18:37Z
2020-07-06T08:20:54Z,42.805,6.029,13.2974,4.59978,2470.04,2020-7-06T10:21:40Z
2020-07-06T08:23:57Z,42.805,6.029,13.2971,4.59972,2470.063,2020-7-06T10:24:43Z
2020-07-06T08:27:00Z,42.805,6.029,13.2972,4.59974,2470.087,2020-7-06T10:27:46Z
2020-07-06T08:30:04Z,42.805,6.029,13.2974,4.59972,2470.04,2020-7-06T10:30:50Z
2020-07-06T08:33:07Z,42.805,6.029,13.2968,4.59972,2470.063,2020-7-06T10:33:53Z
2020-07-06T08:36:10Z,42.805,6.029,13.2973,4.59978,2470.063,2020-7-06T10:36:56Z
2020-07-06T08:39:13Z,42.805,6.029,13.2969,4.59973,2470.063,2020-7-06T10:39:59Z
2020-07-06T08:42:17Z,42.805,6.029,13.2975,4.59972,2470.077,2020-7-06T10:43:03Z
2020-07-06T08:45:20Z,42.805,6.029,13.2971,4.59973,2470.063,2020-7-06T10:46:06Z
2020-07-06T08:48:23Z,42.805,6.029,13.2979,4.59981,2470.053,2020-7-06T10:49:09Z
2020-07-06T08:51:26Z,42.805,6.029,13.2972,4.59978,2470.04,2020-7-06T10:52:12Z
2020-07-06T08:54:30Z,42.805,6.029,13.2968,4.59974,2470.03,2020-7-06T10:55:16Z
2020-07-06T08:57:33Z,42.805,6.029,13.2971,4.59973,2470.077,2020-7-06T10:58:19Z
2020-07-06T09:00:36Z,42.805,6.029,13.2970,4.59975,2470.04,2020-7-06T11:01:22Z
2020-07-06T09:03:39Z,42.805,6.029,13.2971,4.59974,2470.053,2020-7-06T11:04:25Z
2020-07-06T09:06:43Z,42.805,6.029,13.2972,4.59973,2470.017,2020-7-06T11:07:29Z
2020-07-06T09:09:46Z,42.805,6.029,13.2971,4.59973,2470.04,2020-7-06T11:10:32Z
2020-07-06T09:12:49Z,42.805,6.029,13.2984,4.59972,2470.053,2020-7-06T11:13:35Z
2020-07-06T09:15:52Z,42.805,6.029,13.2972,4.59973,2470.04,2020-7-06T11:16:38Z
2020-07-06T09:18:56Z,42.805,6.029,13.2971,4.59976,2470.04,2020-7-06T11:19:42Z
2020-07-06T09:21:59Z,42.805,6.029,13.2973,4.59972,2470.017,2020-7-06T11:22:45Z
2020-07-06T09:25:02Z,42.805,6.029,13.2971,4.59972,2470.053,2020-7-06T11:25:48Z
2020-07-06T09:28:05Z,42.805,6.029,13.2971,4.59973,2470.04,2020-7-06T11:28:52Z
2020-07-06T09:31:09Z,42.805,6.029,13.2973,4.59973,2470.04,2020-7-06T11:31:55Z
2020-07-06T09:34:12Z,42.805,6.029,13.2968,4.59972,2470.053,2020-7-06T11:34:58Z
2020-07-06T09:37:15Z,42.805,6.029,13.2970,4.59972,2470.053,2020-7-06T11:38:01Z
2020-07-06T09:40:18Z,42.805,6.029,13.2968,4.59973,2470.03,2020-7-06T11:41:05Z
2020-07-06T09:43:22Z,42.805,6.029,13.2971,4.59972,2470.03,2020-7-06T11:44:08Z
2020-07-06T09:46:25Z,42.805,6.029,13.2971,4.59973,2470.053,2020-7-06T11:47:11Z
2020-07-06T09:49:28Z,42.805,6.029,13.2969,4.59971,2470.017,2020-7-06T11:50:14Z
2020-07-06T09:52:32Z,42.805,6.029,13.2967,4.59974,2470.077,2020-7-06T11:53:18Z
2020-07-06T09:55:35Z,42.805,6.029,13.2972,4.59978,2470.03,2020-7-06T11:56:21Z
2020-07-06T09:58:38Z,42.805,6.029,13.2969,4.59973,2470.03,2020-7-06T11:59:24Z
2020-07-06T10:01:41Z,42.805,6.029,13.2968,4.59971,2470.017,2020-7-06T12:02:27Z
2020-07-06T10:04:45Z,42.805,6.029,13.2973,4.59971,2470.017,2020-7-06T12:05:31Z
2020-07-06T10:07:48Z,42.805,6.029,13.2973,4.59971,2470.017,2020-7-06T12:08:34Z
2020-07-06T10:10:51Z,42.805,6.029,13.2970,4.59972,2469.993,2020-7-06T12:11:37Z
2020-07-06T10:13:54Z,42.805,6.029,13.2974,4.59974,2470.03,2020-7-06T12:14:40Z
2020-07-06T10:16:58Z,42.805,6.029,13.2971,4.59971,2470.026,2020-7-06T12:17:44Z
2020-07-06T10:20:01Z,42.805,6.029,13.2974,4.59971,2469.993,2020-7-06T12:20:47Z
2020-07-06T10:23:04Z,42.805,6.029,13.2971,4.59972,2470.017,2020-7-06T12:23:50Z
2020-07-06T10:26:07Z,42.805,6.029,13.2968,4.59971,2470.017,2020-7-06T12:26:53Z
2020-07-06T10:29:11Z,42.805,6.029,13.2969,4.59971,2469.993,2020-7-06T12:29:57Z
2020-07-06T10:32:14Z,42.805,6.029,13.2967,4.59972,2469.993,2020-7-06T12:33:00Z
2020-07-06T10:35:17Z,42.805,6.029,13.2969,4.59971,2470.03,2020-7-06T12:36:03Z
2020-07-06T10:38:20Z,42.805,6.029,13.2969,4.59972,2469.993,2020-7-06T12:39:06Z
2020-07-06T10:41:23Z,42.805,6.029,13.2968,4.59972,2469.97,2020-7-06T12:42:09Z
2020-07-06T10:44:27Z,42.805,6.029,13.2968,4.59978,2469.993,2020-7-06T12:45:13Z
2020-07-06T10:47:30Z,42.805,6.029,13.2972,4.59972,2470.007,2020-7-06T12:48:16Z
2020-07-06T10:50:33Z,42.805,6.029,13.2972,4.59978,2469.993,2020-7-06T12:51:19Z
2020-07-06T10:53:36Z,42.805,6.029,13.2972,4.59987,2469.97,2020-7-06T12:54:22Z
2020-07-06T10:56:40Z,42.805,6.029,13.2971,4.59973,2469.993,2020-7-06T12:57:26Z
2020-07-06T10:59:43Z,42.805,6.029,13.2971,4.59971,2469.97,2020-7-06T13:00:29Z
2020-07-06T11:02:46Z,42.805,6.029,13.2971,4.59973,2469.97,2020-7-06T13:03:32Z
2020-07-06T11:05:49Z,42.805,6.029,13.2969,4.59972,2470.017,2020-7-06T13:06:35Z
2020-07-06T11:08:53Z,42.805,6.029,13.2975,4.59972,2469.96,2020-7-06T13:09:39Z
2020-07-06T11:11:56Z,42.805,6.029,13.2971,4.59973,2469.993,2020-7-06T13:12:42Z
2020-07-06T11:14:59Z,42.805,6.029,13.2970,4.59973,2469.97,2020-7-06T13:15:45Z
2020-07-06T11:18:02Z,42.805,6.029,13.2969,4.59977,2469.97,2020-7-06T13:18:48Z
2020-07-06T11:21:06Z,42.805,6.029,13.2968,4.59973,2469.947,2020-7-06T13:21:52Z
2020-07-06T11:24:09Z,42.805,6.029,13.2971,4.59974,2469.993,2020-7-06T13:24:55Z
2020-07-06T11:27:12Z,42.805,6.029,13.2967,4.59973,2469.97,2020-7-06T13:27:58Z
2020-07-06T11:30:15Z,42.805,6.029,13.2971,4.59975,2469.97,2020-7-06T13:31:01Z
2020-07-06T11:33:19Z,42.805,6.029,13.2970,4.59973,2469.97,2020-7-06T13:34:05Z
2020-07-06T11:36:22Z,42.805,6.029,13.2969,4.59978,2469.984,2020-7-06T13:37:08Z
2020-07-06T11:39:25Z,42.805,6.029,13.2970,4.59972,2469.984,2020-7-06T13:40:11Z
2020-07-06T11:42:28Z,42.805,6.029,13.2973,4.59975,2469.97,2020-7-06T13:43:14Z
2020-07-06T11:45:32Z,42.805,6.029,13.2968,4.59973,2469.947,2020-7-06T13:46:18Z
2020-07-06T11:48:35Z,42.805,6.029,13.2971,4.59972,2469.947,2020-7-06T13:49:21Z
2020-07-06T11:51:38Z,42.805,6.029,13.2970,4.59973,2469.947,2020-7-06T13:52:24Z
2020-07-06T11:54:41Z,42.805,6.029,13.2972,4.59974,2469.947,2020-7-06T13:55:27Z
2020-07-06T11:57:45Z,42.805,6.029,13.2973,4.59973,2469.984,2020-7-06T13:58:31Z
2020-07-06T12:00:48Z,42.805,6.029,13.2971,4.59979,2469.97,2020-7-06T14:01:34Z
2020-07-06T12:03:51Z,42.805,6.029,13.2970,4.59973,2469.947,2020-7-06T14:04:37Z
2020-07-06T12:06:54Z,42.805,6.029,13.2971,4.59975,2469.937,2020-7-06T14:07:40Z
2020-07-06T12:09:58Z,42.805,6.029,13.2971,4.59979,2469.923,2020-7-06T14:10:44Z
2020-07-06T12:13:01Z,42.805,6.029,13.2970,4.59974,2469.96,2020-7-06T14:13:47Z
2020-07-06T12:16:04Z,42.805,6.029,13.2972,4.59978,2469.9,2020-7-06T14:16:50Z
2020-07-06T12:19:07Z,42.805,6.029,13.2969,4.59973,2469.947,2020-7-06T14:19:53Z
2020-07-06T12:22:10Z,42.805,6.029,13.2971,4.59971,2469.947,2020-7-06T14:22:56Z
2020-07-06T12:25:14Z,42.805,6.029,13.2971,4.59971,2469.96,2020-7-06T14:26:00Z
2020-07-06T12:28:17Z,42.805,6.029,13.2972,4.59978,2469.9,2020-7-06T14:29:03Z
2020-07-06T12:31:20Z,42.805,6.029,13.2969,4.59973,2469.9,2020-7-06T14:32:06Z
2020-07-06T12:34:23Z,42.805,6.029,13.2971,4.59973,2469.923,2020-7-06T14:35:09Z
2020-07-06T12:37:27Z,42.805,6.029,13.2969,4.59973,2469.9,2020-7-06T14:38:13Z
2020-07-06T12:40:30Z,42.805,6.029,13.2971,4.59974,2469.9,2020-7-06T14:41:16Z
2020-07-06T12:43:33Z,42.805,6.029,13.2972,4.59976,2469.923,2020-7-06T14:44:19Z
2020-07-06T12:46:37Z,42.805,6.029,13.2971,4.59975,2469.9,2020-7-06T14:47:23Z
2020-07-06T12:49:40Z,42.805,6.029,13.2968,4.59974,2469.876,2020-7-06T14:50:26Z
2020-07-06T12:52:43Z,42.805,6.029,13.2970,4.59975,2469.923,2020-7-06T14:53:29Z
2020-07-06T12:55:46Z,42.805,6.029,13.2970,4.59973,2469.937,2020-7-06T14:56:32Z
2020-07-06T12:58:50Z,42.805,6.029,13.2968,4.59973,2469.923,2020-7-06T14:59:36Z
2020-07-06T13:01:53Z,42.805,6.029,13.2971,4.59972,2469.923,2020-7-06T15:02:39Z
2020-07-06T13:04:56Z,42.805,6.029,13.2967,4.59973,2469.923,2020-7-06T15:05:42Z
2020-07-06T13:07:59Z,42.805,6.029,13.2971,4.59974,2469.923,2020-7-06T15:08:45Z
2020-07-06T13:11:03Z,42.805,6.029,13.2971,4.59976,2469.9,2020-7-06T15:11:49Z
2020-07-06T13:14:06Z,42.805,6.029,13.2971,4.59973,2469.9,2020-7-06T15:14:52Z
2020-07-06T13:17:09Z,42.805,6.029,13.2969,4.59973,2469.937,2020-7-06T15:17:55Z
2020-07-06T13:20:12Z,42.805,6.029,13.2970,4.59983,2469.876,2020-7-06T15:20:58Z
2020-07-06T13:23:16Z,42.805,6.029,13.2970,4.59977,2469.914,2020-7-06T15:24:02Z
2020-07-06T13:26:19Z,42.805,6.029,13.2971,4.59980,2469.914,2020-7-06T15:27:05Z
2020-07-06T13:29:22Z,42.805,6.029,13.2968,4.59983,2469.9,2020-7-06T15:30:08Z
2020-07-06T13:32:25Z,42.805,6.029,13.2970,4.59979,2469.876,2020-7-06T15:33:11Z
2020-07-06T13:35:29Z,42.805,6.029,13.2972,4.59982,2469.9,2020-7-06T15:36:15Z
2020-07-06T13:38:32Z,42.805,6.029,13.2983,4.59974,2469.9,2020-7-06T15:39:18Z
2020-07-06T13:41:35Z,42.805,6.029,13.2995,4.59996,2469.914,2020-7-06T15:42:21Z
2020-07-06T13:44:38Z,42.805,6.029,13.2968,4.59980,2469.923,2020-7-06T15:45:24Z
2020-07-06T13:47:42Z,42.805,6.029,13.2969,4.59986,2469.914,2020-7-06T15:48:28Z
2020-07-06T13:50:45Z,42.805,6.029,13.2970,4.59978,2469.914,2020-7-06T15:51:31Z
2020-07-06T13:53:49Z,42.805,6.029,13.2976,4.59999,2469.9,2020-7-06T15:54:35Z
2020-07-06T13:56:52Z,42.805,6.029,13.2986,4.60022,2469.9,2020-7-06T15:57:38Z
2020-07-06T13:59:55Z,42.805,6.029,13.3000,4.60025,2469.923,2020-7-06T16:00:41Z
2020-07-06T14:02:58Z,42.805,6.029,13.3009,4.59990,2469.89,2020-7-06T16:03:44Z
2020-07-06T14:06:02Z,42.805,6.029,13.3006,4.60042,2469.876,2020-7-06T16:06:48Z
2020-07-06T14:09:05Z,42.805,6.029,13.3002,4.60026,2469.9,2020-7-06T16:09:51Z
2020-07-06T14:12:08Z,42.805,6.029,13.3016,4.60014,2469.914,2020-7-06T16:12:54Z
2020-07-06T14:15:11Z,42.805,6.029,13.3019,4.60028,2469.9,2020-7-06T16:15:57Z
2020-07-06T14:18:14Z,42.805,6.029,13.3018,4.60016,2469.9,2020-7-06T16:19:00Z
2020-07-06T14:21:18Z,42.805,6.029,13.3021,4.60006,2469.9,2020-7-06T16:22:04Z
2020-07-06T14:24:21Z,42.805,6.029,13.3014,4.60016,2469.867,2020-7-06T16:25:07Z
2020-07-06T14:27:24Z,42.805,6.029,13.3005,4.60037,2469.89,2020-7-06T16:28:10Z
2020-07-06T14:30:28Z,42.805,6.029,13.3000,4.60052,2469.9,2020-7-06T16:31:14Z
2020-07-06T14:33:31Z,42.805,6.029,13.3027,4.60047,2469.867,2020-7-06T16:34:17Z
2020-07-06T14:36:34Z,42.805,6.029,13.3006,4.60026,2469.914,2020-7-06T16:37:20Z
2020-07-06T14:39:37Z,42.805,6.029,13.3007,4.60040,2469.876,2020-7-06T16:40:23Z
2020-07-06T14:42:40Z,42.805,6.029,13.2989,4.60074,2469.876,2020-7-06T16:43:26Z
2020-07-06T14:45:44Z,42.805,6.029,13.3051,4.60055,2469.89,2020-7-06T16:46:30Z
2020-07-06T14:48:47Z,42.805,6.029,13.2993,4.60097,2469.867,2020-7-06T16:49:33Z
2020-07-06T14:51:50Z,42.805,6.029,13.2996,4.60023,2469.886,2020-7-06T16:52:36Z
2020-07-06T14:54:54Z,42.805,6.029,13.2997,4.60016,2469.9,2020-7-06T16:55:40Z
2020-07-06T14:57:57Z,42.805,6.029,13.2998,4.60054,2469.9,2020-7-06T16:58:43Z
2020-07-06T15:01:00Z,42.805,6.029,13.3004,4.60014,2469.876,2020-7-06T17:01:46Z
2020-07-06T15:04:03Z,42.805,6.029,13.3023,4.60013,2469.9,2020-7-06T17:04:49Z
2020-07-06T15:07:06Z,42.805,6.029,13.3018,4.60044,2469.9,2020-7-06T17:07:52Z
2020-07-06T15:10:10Z,42.805,6.029,13.3000,4.60062,2469.9,2020-7-06T17:10:56Z
2020-07-06T15:13:13Z,42.805,6.029,13.3051,4.60067,2469.914,2020-7-06T17:13:59Z
2020-07-06T15:16:16Z,42.805,6.029,13.3056,4.60010,2469.914,2020-7-06T17:17:02Z